Theta_e
348 350 350 348 348 348 346 343 337 331 333 340 341 348 353 352 349 343 344 343 342 345 344 343 342 343 344 345 346 346 346 347 349 351 353 354 353 353
346 348 346 343 345 346 345 344 341 338 331 338 342 346 350 352 350 342 342 342 341 343 342 340 340 340 340 341 342 342 343 343 345 347 348 346 345 346
345 343 343 344 342 342 341 341 340 340 334 338 344 348 351 353 344 336 337 336 336 339 342 341 339 339 339 339 339 339 341 341 342 344 344 343 343 345
340 340 340 341 340 340 339 340 341 342 338 334 339 341 347 349 348 350 349 346 344 350 341 340 338 337 335 335 334 334 333 335 338 339 340 341 344 345
339 339 339 339 337 339 339 339 341 341 341 339 338 343 344 348 349 353 351 355 358 353 345 340 339 338 335 332 330 329 326 327 330 332 333 336 339 342
340 339 338 338 337 338 338 339 341 340 340 338 338 339 340 343 345 342 345 351 351 355 351 347 344 340 337 334 332 329 324 321 322 324 326 328 330 334
337 338 337 338 337 335 335 335 336 335 336 336 335 336 336 337 338 340 343 345 348 352 352 353 354 349 345 336 339 334 326 322 320 320 322 323 324 327
334 334 336 337 335 332 330 331 332 332 332 332 332 332 334 337 341 340 340 340 339 351 350 349 355 352 351 348 339 334 326 323 322 320 320 320 320 321
332 332 333 334 333 334 331 330 331 328 329 332 331 332 333 337 340 339 339 339 340 346 349 347 351 345 353 352 336 330 326 323 322 322 320 320 318 317
333 333 333 333 334 332 331 331 332 333 333 333 335 335 337 340 340 341 341 341 343 347 351 341 348 335 335 349 332 330 327 324 322 321 320 318 316 313
333 333 333 332 327 323 328 329 328 328 327 324 324 323 323 325 332 339 335 335 334 339 347 345 346 343 344 350 352 328 324 322 320 320 320 317 313 312
332 332 327 326 320 315 324 326 324 325 327 328 328 328 328 332 326 333 338 333 335 334 341 343 344 345 339 348 350 337 333 319 318 317 318 316 311 322
327 328 328 318 312 311 312 322 321 322 322 323 325 326 326 330 335 339 338 338 335 336 342 346 343 344 340 339 341 348 342 334 330 323 312 312 309 326
325 327 327 315 310 308 309 311 309 312 318 320 320 320 321 326 333 339 342 344 344 341 345 345 341 343 329 324 327 335 340 347 340 339 333 321 309 313
325 322 315 311 308 311 312 312 313 321 322 321 320 319 321 327 335 339 341 345 345 347 348 347 345 344 338 333 329 328 336 344 344 345 344 337 327 320
321 319 317 314 313 316 315 322 323 322 322 321 321 319 324 328 332 336 336 339 339 341 347 348 347 346 342 343 342 341 344 341 343 343 346 344 339 336
305 310 318 323 324 324 323 322 322 322 320 320 321 322 324 328 332 336 336 338 335 337 339 344 346 347 347 344 340 343 343 344 345 340 338 343 339 338
305 312 318 322 322 323 320 319 320 319 318 318 326 326 327 329 331 335 336 335 334 336 337 340 343 342 342 343 332 342 343 343 346 345 342 341 339 340
319 322 319 321 323 322 321 320 318 319 318 319 319 326 329 330 329 332 334 334 334 336 336 337 339 337 332 330 326 311 337 344 343 341 341 340 339 340
321 321 321 324 324 321 320 321 321 320 319 320 319 320 322 324 327 329 331 332 333 334 333 334 335 336 334 332 330 315 309 327 336 337 332 323 321 320
319 321 322 320 321 319 319 319 321 319 319 320 319 318 317 318 317 319 322 315 320 328 326 327 330 321 335 329 320 315 314 308 317 332 330 322 319 318
317 318 318 316 315 312 313 313 311 313 313 315 320 319 317 315 314 314 314 315 317 319 320 322 325 326 323 321 320 312 313 314 312 309 309 312 319 315
314 315 315 314 312 310 309 309 307 306 306 308 315 321 318 314 314 313 312 313 313 315 317 319 320 319 316 314 313 313 314 314 315 313 310 308 309 310
Wind_Speed
10 10 11 9 8 9 11 11 11 11 12 9 8 9 5 3 10 7 13 30 29 23 15 14 13 14 14 15 15 15 14 15 14 13 12 11 10 9
8 8 8 8 8 8 9 10 11 12 15 10 8 8 5 2 6 6 14 30 29 23 13 14 15 15 15 15 15 15 16 14 14 12 11 10 10 10
12 13 14 12 9 10 9 10 11 11 14 12 6 9 7 5 8 8 10 11 13 27 19 19 18 17 15 15 15 16 15 14 14 12 12 11 11 10
14 15 14 10 10 8 9 12 11 12 11 17 12 10 8 7 10 8 10 11 14 26 15 17 16 14 15 15 15 15 15 14 14 13 12 12 12 11
13 13 13 12 11 9 10 10 10 10 10 10 12 9 8 8 6 6 6 8 8 12 12 17 20 19 17 15 14 15 14 13 13 14 13 12 11 11
11 11 12 11 12 12 11 11 10 9 10 10 11 11 9 10 7 9 7 6 8 9 12 15 14 18 17 15 14 15 13 15 14 14 14 13 13 12
11 11 12 13 13 12 9 12 11 10 9 10 10 9 10 9 9 8 8 8 9 7 7 9 6 7 8 12 10 16 16 16 15 14 14 14 14 12
13 13 12 14 14 18 18 19 13 8 9 10 12 12 13 10 8 8 8 7 11 6 7 10 5 7 7 8 15 17 19 18 17 17 15 14 13 13
14 13 13 12 13 13 13 13 13 12 12 11 14 14 15 13 12 12 11 10 11 9 5 7 3 4 5 10 22 22 21 19 19 19 17 16 14 14
13 14 14 16 15 14 13 13 13 11 10 10 12 15 14 14 14 14 14 12 10 10 8 9 5 4 6 13 17 20 20 20 19 20 19 18 16 14
13 14 14 15 16 14 10 9 10 12 12 15 16 16 17 19 20 11 12 11 11 12 9 9 10 4 9 19 5 18 20 20 20 19 19 18 17 14
12 11 16 16 12 6 5 8 10 13 13 15 15 16 15 16 19 17 14 13 11 11 11 10 9 5 5 6 5 4 6 10 18 19 18 18 17 7
8 8 7 9 10 13 11 9 13 15 18 15 15 14 14 14 13 12 15 15 14 14 8 8 8 5 4 2 3 4 3 4 8 7 11 15 18 15
8 8 9 11 13 11 10 15 16 15 11 13 14 15 14 13 13 12 15 14 15 18 10 10 9 6 5 4 4 5 10 7 7 7 8 8 9 15
7 11 18 19 17 13 12 10 14 10 12 14 16 14 13 12 13 11 12 15 16 17 12 14 9 9 7 5 5 9 23 4 6 8 8 9 10 7
11 11 14 17 18 10 6 8 8 11 16 18 13 10 9 9 9 8 9 8 9 10 12 13 12 12 9 9 8 5 8 6 7 8 7 9 9 11
12 8 8 7 6 4 5 7 10 12 15 17 7 8 8 8 8 7 8 7 9 8 8 7 11 12 10 13 10 10 9 9 7 7 6 9 9 10
3 6 8 7 4 2 3 5 8 12 12 17 6 6 7 7 8 7 8 8 9 8 8 8 7 6 7 9 2 9 9 9 8 9 9 12 7 7
8 8 4 5 5 4 4 5 6 8 12 12 15 9 3 5 5 7 7 8 8 8 8 7 6 7 8 8 4 8 6 6 4 3 6 8 9 8
7 6 6 8 7 5 6 6 4 6 9 10 11 14 12 8 5 7 7 7 7 6 7 6 5 6 7 9 3 3 8 3 4 5 3 2 3 10
10 7 8 9 9 9 9 10 10 10 9 8 9 11 13 11 10 10 8 7 2 2 2 2 3 8 0 5 4 2 3 11 1 4 3 4 5 3
9 10 9 9 10 10 10 10 10 11 11 11 8 8 9 9 6 11 12 11 10 7 5 4 5 3 3 1 2 5 3 1 10 21 18 8 3 6
11 11 10 11 11 11 12 11 11 10 10 10 10 6 5 6 6 9 11 12 11 11 9 7 7 7 6 5 5 3 6 4 3 6 7 17 13 11
Wind_Direction
270 249 244 254 259 264 262 271 274 281 275 264 259 267 280 30 83 54 18 316 307 291 218 214 217 221 224 227 229 228 232 241 242 244 240 234 225 235
273 283 281 276 272 268 277 271 270 276 278 268 254 240 282 177 153 120 196 243 258 275 227 216 218 218 217 224 225 228 226 229 235 231 227 207 219 230
268 265 269 273 275 275 274 275 280 278 281 294 315 308 317 316 155 175 203 209 272 277 232 214 214 219 216 220 221 224 225 222 225 215 203 203 212 222
284 286 284 281 280 284 284 274 267 270 276 279 280 280 271 275 277 249 201 214 222 242 228 236 228 222 220 219 218 223 225 221 213 194 196 206 209 209
275 277 283 283 280 272 265 268 271 270 270 278 282 279 276 278 278 270 273 246 245 252 243 216 215 219 214 215 209 219 215 215 200 190 194 204 202 203
284 277 270 266 271 270 268 265 270 274 274 271 273 273 264 260 245 256 268 244 251 243 249 258 225 218 211 211 206 207 202 203 199 195 193 198 200 197
286 284 278 267 272 269 274 273 266 263 267 270 268 268 270 269 251 251 251 258 253 253 255 261 260 202 214 214 213 201 195 192 192 194 198 196 198 199
285 283 281 277 275 267 271 271 257 267 275 273 270 266 266 264 265 263 258 261 266 245 249 259 261 266 210 190 202 195 195 189 189 188 198 200 195 196
283 282 278 277 280 288 288 289 282 262 242 270 276 268 270 264 262 264 252 246 248 257 279 269 249 281 271 205 193 200 194 194 187 188 190 194 196 195
280 279 275 274 272 275 280 275 272 277 283 281 272 274 272 268 260 258 254 259 262 258 249 258 237 230 297 286 188 194 191 190 192 190 187 188 192 194
279 276 274 276 275 269 272 275 283 282 274 262 265 272 270 263 253 256 256 248 253 249 233 227 250 213 190 245 200 193 192 189 190 193 190 185 185 188
285 280 276 268 286 261 294 300 289 279 285 283 284 274 269 275 248 244 243 241 243 253 240 224 237 198 223 245 251 149 200 208 189 191 190 188 172 171
294 295 308 309 318 322 306 283 270 278 285 280 281 273 267 263 254 240 231 227 235 240 237 216 227 232 230 291 329 355 199 178 189 196 196 187 176 181
295 294 290 300 289 286 289 269 261 271 271 271 272 262 257 247 242 234 235 227 231 236 242 223 235 197 170 184 222 296 298 215 195 196 184 188 201 204
282 292 290 288 286 283 270 290 299 289 282 275 276 253 247 244 238 233 243 237 233 238 231 233 234 220 189 208 201 207 232 205 185 203 186 188 181 189
313 315 298 284 269 272 299 285 297 295 294 283 273 245 241 238 234 228 232 222 226 238 228 227 226 220 229 228 222 221 228 222 200 210 204 197 191 194
317 299 293 290 292 10 340 335 321 311 318 316 225 228 231 229 234 228 230 230 225 229 227 224 224 223 221 232 234 228 230 243 209 211 205 229 196 200
256 296 300 293 348 71 341 312 307 328 324 341 294 227 229 228 236 228 220 220 226 227 225 224 219 219 225 231 198 233 232 238 237 207 199 221 217 203
331 319 283 23 25 26 337 299 308 328 327 350 354 348 255 260 250 242 231 218 220 215 224 218 207 210 222 232 155 28 238 221 222 253 221 210 219 219
328 354 10 29 34 24 332 327 298 333 348 351 356 8 17 353 270 245 235 219 217 218 248 240 212 216 219 231 211 88 4 254 235 236 186 97 33 77
334 4 27 14 16 3 4 351 356 358 344 354 1 9 14 21 5 27 29 26 283 208 120 14 343 311 43 100 95 107 31 13 206 229 143 155 161 171
357 357 24 17 15 8 5 5 356 1 348 348 349 5 9 26 356 42 36 34 30 38 49 26 12 26 43 56 129 128 125 61 56 68 57 61 182 179
354 0 23 18 16 12 4 7 4 351 343 337 339 357 3 343 351 40 57 46 33 30 24 44 53 51 40 69 75 69 93 78 50 58 40 32 39 77